Hourly Data Report for August 01, 2014

All times are specified in Local Standard Time (LST). Add 1 hour to adjust for Daylight Saving Time where and when it is observed.

Metadata including Station Name, Province, Latitude, Longitude, Elevation, Climate ID, WMO ID, TC ID
CHATHAM KENT
ONTARIO
Latitude: 42°18'21.000" N Longitude: 82°04'57.000" W Elevation: 196.60 m
Climate ID: 6131414 WMO ID: TC ID: YCK
Hourly Data Report for July 31, 2014
Temp Definition
°C

Dew Point Temp Definition
°C

Rel Hum Definition
%

Wind Dir Definition
10's deg
Wind Spd Definition
km/h

Visibility Definition
km

Stn Press Definition
kPa

Hmdx Definition

Wind Chill Definition

Weather Definition

00:00 Legend Double Dagger 14.4 13.5 94 21 8 16.1 99.17 LegendNANA
01:00 Legend Double Dagger 14.4 13.6 95 28 4 9.7 99.16 Fog
02:00 Legend Double Dagger 13.5 12.9 96 27 8 1.0 99.18 Fog
03:00 Legend Double Dagger 14.4 13.0 91 26 9 16.1 99.14 LegendNANA
04:00 Legend Double Dagger 13.5 12.2 92 25 9 16.1 99.17 LegendNANA
05:00 Legend Double Dagger 13.2 12.1 93 27 9 16.1 99.22 LegendNANA
06:00 Legend Double Dagger 12.9 11.8 93 26 8 16.1 99.26 LegendNANA
07:00 Legend Double Dagger 15.2 13.3 88 25 11 16.1 99.29 LegendNANA
08:00 Legend Double Dagger 17.4 14.8 85 28 13 16.1 99.34 LegendNANA
09:00 Legend Double Dagger 19.2 15.2 77 29 13 16.1 99.34 LegendNANA
10:00 Legend Double Dagger 20.9 14.9 68 29 11 16.1 99.36 25 LegendNANA
11:00 Legend Double Dagger 21.9 12.6 55 27 17 16.1 99.39 LegendNANA
12:00 Legend Double Dagger 23.0 13.2 54 23 15 16.1 99.39 26 LegendNANA
13:00 Legend Double Dagger 23.2 14.4 57 21 21 16.1 99.39 27 LegendNANA
14:00 Legend Double Dagger 23.1 15.5 62 22 22 16.1 99.38 27 LegendNANA
15:00 Legend Double Dagger 23.5 15.0 58 21 24 16.1 99.37 27 LegendNANA
16:00 Legend Double Dagger 22.8 15.8 64 20 24 16.1 99.37 27 LegendNANA
17:00 Legend Double Dagger 22.9 15.6 63 19 22 16.1 99.34 27 LegendNANA
18:00 Legend Double Dagger 21.7 14.5 63 20 17 16.1 99.32 25 LegendNANA
19:00 Legend Double Dagger 21.6 14.7 65 21 15 16.1 99.33 25 LegendNANA
20:00 Legend Double Dagger 19.9 14.6 71 20 15 16.1 99.34 LegendNANA
21:00 Legend Double Dagger 19.6 16.3 81 20 13 16.1 99.37 LegendNANA
22:00 Legend Double Dagger 19.5 16.6 83 22 17 16.1 99.38 LegendNANA
23:00 Legend Double Dagger 18.0 16.1 88 23 13 16.1 99.41 LegendNANA

Notes on Data Quality.

Legend
  • E = Estimated
  • M = Missing
  • NA = Not Available
  • ‡ = Partner data that is not subject to review by the National Climate Archives